Skip Page Navigation
NASA JPL Caltech
NASA Logo - Jet Propulsion Laboratory + View the NASA Portal
+ Center for Near-Earth Object Studies
JPL Home Earth Solar System Stars & Galaxies Technology
JPL Solar System Dynamics
BODIES ORBITS EPHEMERIDES TOOLS PHYSICAL DATA DISCOVERY FAQ SITE MAP
JPL Small-Body Database Browser
Search: [ help ]  
52498 (1996 BG8)
Classification: Main-belt Asteroid          SPK-ID: 2052498
Ephemeris | Orbit Diagram | Orbital Elements | Mission Design | Physical Parameters | Discovery Circumstances ]

[ show orbit diagram ]
Orbital Elements at Epoch 2459200.5 (2020-Dec-17.0) TDB
Reference: JPL 28 (heliocentric ecliptic J2000)
 Element Value Uncertainty (1-sigma)   Units 
e .2116766789963193 4.8315e-08  
a 2.294183898980759 7.7704e-09 au
q 1.808558670237685 1.099e-07 au
i 3.196811510192419 3.1576e-06 deg
node 269.8523739256492 8.973e-05 deg
peri 62.87580878496499 9.0059e-05 deg
M 198.3531269565451 8.9122e-06 deg
tp 2459770.409078459281
(2022-Jul-09.90907846)
3.2827e-05 TDB
period 1269.231284110191
3.47
6.4484e-06
1.765e-08
d
yr
n .2836362485757528 1.441e-09 deg/d
Q 2.779809127723833 9.4152e-09 au
  Orbit Determination Parameters
   # obs. used (total)      1058  
   data-arc span      9195 days (25.17 yr)  
   first obs. used      1996-01-19  
   last obs. used      2021-03-23  
   planetary ephem.      DE441  
   SB-pert. ephem.      SB441-N16  
   condition code      0  
   norm. resid. RMS      .55853  
   source      ORB  
   producer      Otto Matic  
   solution date      2021-May-04 06:18:39  

Additional Information
 Earth MOID = .798971 au 
 Jupiter MOID = 2.59249 au 
 T_jup = 3.564 
[ show covariance matrix ]

Ephemeris | Orbit Diagram | Orbital Elements | Mission Design | Physical Parameters | Discovery Circumstances ]

Physical Parameter Table
Parameter Symbol Value Units Sigma Reference Notes
absolute magnitude H 15.45   n/a E2021B10  

52498 (1996 BG8)          Discovered 1996-Jan-19 by Spacewatch at Kitt Peak
Reference: 20030216/Numbers.arcLast Updated: 2004-04-19

Alternate Designations
 1996 BG8 = 1998 VU35 = 2001 MN14 
Ephemeris | Orbit Diagram | Orbital Elements | Mission Design | Physical Parameters | Discovery Circumstances ]
ABOUT SSD CREDITS/AWARDS PRIVACY/COPYRIGHT GLOSSARY LINKS
FirstGov 2021-Jun-24 14:44 UT
(server date/time)  
NASA Home Page
Site Manager:   Ryan S. Park
Webmaster  Alan B. Chamberlin